Location: Veytaux
(46.4185°N, 6.9320°E)
Time: 08:14:22
(UTC+00:00)

Cosmos 1455 - Pass Details

Date: 27 May 2022
Orbit: 492 x 514 km, 82.5° (Epoch: 01 July)

Event Time Altitude Azimuth Distance (km) Brightness Sun altitude
Rises 00:28:46 0° 4° (N) 2,586 7.2 -21.0°
Reaches altitude 10° 00:31:18 10° 21° (NNE) 1,697 6.0 -20.9°
Maximum altitude 00:34:08 20° 71° (ENE) 1,177 4.4 -20.8°
Enters shadow 00:36:19 13° 113° (ESE) 1,502 4.5 -20.6°
